This demonstration page uses our WeatherBlox Daily Observations layout. Learn more.

Left ArrowRight Arrow

39.51506, -84.39828

Hourly Observations for October 4, 2018

Temp ( °F °C ) Dew Point ( °F °C ) Humidity (%) Winds ( mph kmh ) Pressure ( in mb ) Visibility ( mi km ) Precip ( " mm )
12:15 am 00:15 Clear 74 23.6 68 20.1 81 81 S 8 13 29.94 1014 10 16.0934 0 0
12:35 am 00:35 Clear 74 23.6 68 20.1 81 81 S 9 15 29.94 1014 10 16.0934 0 0
12:55 am 00:55 Clear 74 23.2 68 20 82 82 S 8 13 29.94 1014 10 16.0934 0 0
1:15 am 01:15 Clear 73 22.8 68 20 84 84 S 8 13 29.94 1014 10 16.0934 0 0
1:35 am 01:35 Clear 73 22.8 68 19.9 84 84 SSW 6 9 29.94 1014 10 16.0934 0 0
1:55 am 01:55 Clear 71 21.7 68 19.8 89 89 SSW 7 11 29.94 1014 10 16.0934 0 0
2:15 am 02:15 Mostly Cloudy 71 21.6 68 19.8 90 90 SSW 6 9 29.97 1015 10 16.0934 0 0
2:35 am 02:35 Cloudy 73 22.9 68 20.1 84 84 SSW 8 13 29.97 1015 10 16.0934 0 0
2:55 am 02:55 Cloudy 74 23.6 68 20.2 81 81 SW 8 13 29.97 1015 10 16.0934 0 0
3:15 am 03:15 Mostly Cloudy 74 23.5 68 20.2 82 82 SSW 9 15 29.97 1015 10 16.0934 0 0
3:35 am 03:35 Cloudy 74 23.5 69 20.3 82 82 SSW 10 17 29.97 1015 10 16.0934 0 0
3:55 am 03:55 Partly Cloudy 74 23.2 68 20.2 83 83 SSW 10 17 29.94 1014 10 16.0934 0 0
4:15 am 04:15 Partly Cloudy 74 23.3 68 20.2 83 83 SSW 9 15 29.94 1014 10 16.0934 0 0
4:35 am 04:35 Partly Cloudy 74 23.2 68 20.2 83 83 SSW 10 17 29.94 1014 10 16.0934 0 0
4:55 am 04:55 Mostly Cloudy 74 23.3 68 20.2 83 83 SSW 9 15 29.94 1014 10 16.0934 0 0
5:15 am 05:15 Partly Cloudy 73 23 68 20.2 84 84 SSW 10 17 29.94 1014 10 16.0934 0 0
5:35 am 05:35 Clear 74 23.1 69 20.3 84 84 SSW 9 15 29.94 1014 10 16.0934 0 0
5:55 am 05:55 Clear 74 23.1 69 20.3 84 84 SSW 10 17 29.94 1014 10 16.0934 0 0
6:15 am 06:15 Partly Cloudy 74 23.1 69 20.3 84 84 SSW 12 19 29.94 1014 10 16.0934 0 0
6:35 am 06:35 Clear 74 23.1 69 20.3 84 84 SSW 12 19 29.94 1014 10 16.0934 0 0
6:55 am 06:55 Mostly Cloudy 74 23.2 69 20.3 84 84 SW 12 19 29.97 1015 10 16.0934 0 0
7:15 am 07:15 Mostly Cloudy 73 23 69 20.4 85 85 SW 12 19 29.97 1015 10 16.0934 0 0
7:35 am 07:35 Partly Cloudy 74 23.1 69 20.4 85 85 SSW 10 17 29.97 1015 10 16.0934 0 0
7:55 am 07:55 Cloudy 74 23.2 69 20.5 85 85 SW 9 15 29.97 1015 10 16.0934 0 0
8:15 am 08:15 Partly Cloudy with Light Rain 73 22.9 69 20.5 86 86 SW 8 13 29.97 1015 10 16.0934 0 0
8:35 am 08:35 Cloudy with Rain 72 22.4 69 20.7 90 90 SW 7 11 29.97 1015 7 11.26538 0.01 0.254
8:55 am 08:55 Mostly Cloudy with Light Rain 72 22.1 70 20.9 93 93 SW 6 9 30 1016 10 16.0934 0.01 0.254
9:15 am 09:15 Mostly Cloudy 73 22.5 70 21.2 92 92 SW 6 9 30 1016 10 16.0934 0 0
9:35 am 09:35 Cloudy 74 23.2 71 21.5 90 90 SSW 9 15 30 1016 10 16.0934 0 0
9:55 am 09:55 Mostly Cloudy 75 24.1 71 21.7 87 87 SSW 10 17 30 1016 10 16.0934 0 0
10:15 am 10:15 Mostly Cloudy 77 24.9 71 21.8 83 83 SW 10 17 30 1016 10 16.0934 0 0
10:35 am 10:35 Cloudy 76 24.5 71 21.5 83 83 SW 12 19 30 1016 10 16.0934 0 0
10:55 am 10:55 Cloudy 76 24.2 70 21.3 84 84 SW 9 15 30 1016 10 16.0934 0 0
11:15 am 11:15 Cloudy 76 24.3 71 21.5 84 84 SW 9 15 30 1016 10 16.0934 0 0
11:35 am 11:35 Cloudy 77 24.8 71 21.7 83 83 SW 8 13 30 1016 10 16.0934 0 0
11:55 am 11:55 Cloudy 77 25.1 71 21.8 82 82 WSW 10 17 30 1016 10 16.0934 0 0
12:15 pm 12:15 Cloudy 78 25.3 71 21.9 82 82 WSW 8 13 30 1016 10 16.0934 0 0
12:35 pm 12:35 Cloudy 77 25.2 71 21.8 82 82 WSW 12 19 30 1016 10 16.0934 0 0
12:55 pm 12:55 Cloudy 78 25.5 71 21.9 81 81 WSW 9 15 30 1016 10 16.0934 0 0
1:15 pm 13:15 Cloudy 79 25.9 72 22 79 79 WSW 9 15 30 1016 10 16.0934 0 0
1:35 pm 13:35 Cloudy 78 25.7 71 21.9 80 80 W 8 13 30 1016 10 16.0934 0 0
1:55 pm 13:55 Cloudy 77 25.2 72 22 82 82 SW 8 13 30 1016 10 16.0934 0 0
2:15 pm 14:15 Cloudy 78 25.3 72 22 82 82 SW 8 13 30 1016 10 16.0934 0 0
2:35 pm 14:35 Cloudy 77 25.2 72 22.1 83 83 SW 7 11 30 1016 10 16.0934 0 0
2:55 pm 14:55 Cloudy 79 26.2 73 22.5 80 80 WSW 9 15 30 1016 10 16.0934 0 0
3:15 pm 15:15 Mostly Cloudy 80 26.8 73 22.7 78 78 WSW 7 11 30 1016 10 16.0934 0 0
3:35 pm 15:35 Mostly Cloudy 76 24.7 70 21.2 81 81 NNW 8 13 30.03 1017 10 16.0934 0 0
3:55 pm 15:55 Mostly Cloudy 78 25.6 70 21.3 77 77 N 10 17 30.03 1017 10 16.0934 0 0
4:15 pm 16:15 Cloudy 78 25.6 70 21 76 76 NNW 8 13 30.03 1017 10 16.0934 0 0
4:35 pm 16:35 Cloudy 78 25.3 70 20.9 77 77 N 10 17 30.03 1017 10 16.0934 0 0
4:55 pm 16:55 Mostly Cloudy 78 25.3 69 20.4 74 74 N 14 22 30.03 1017 10 16.0934 0 0
5:15 pm 17:15 Cloudy 76 24.2 68 19.8 77 77 N 8 13 30.03 1017 10 16.0934 0 0
5:35 pm 17:35 Cloudy 74 23.6 67 19.3 77 77 N 9 15 30.03 1017 10 16.0934 0 0
5:55 pm 17:55 Cloudy 74 23.5 66 18.9 75 75 N 10 17 30.03 1017 10 16.0934 0 0
6:15 pm 18:15 Cloudy 74 23.1 64 17.9 73 73 N 10 17 30.03 1017 10 16.0934 0 0
6:35 pm 18:35 Cloudy 73 22.7 64 17.8 74 74 N 8 13 30.03 1017 10 16.0934 0 0
6:55 pm 18:55 Cloudy 72 22.4 64 18 76 76 N 3 6 30.03 1017 10 16.0934 0 0
7:15 pm 19:15 Cloudy 72 22.3 64 17.8 76 76 N 5 7 30.06 1018 10 16.0934 0 0
7:35 pm 19:35 Mostly Cloudy 71 21.6 64 17.7 79 79 N 3 6 30.06 1018 10 16.0934 0 0
7:55 pm 19:55 Cloudy 70 20.9 65 18.3 85 85 Calm 30.06 1018 10 16.0934 0 0
8:15 pm 20:15 Cloudy 71 21.4 64 17.8 80 80 N 6 9 30.06 1018 10 16.0934 0 0
8:35 pm 20:35 Cloudy 71 21.4 63 17.4 78 78 Calm 30.06 1018 10 16.0934 0 0
8:55 pm 20:55 Partly Cloudy 69 20.7 63 17.4 81 81 Calm 30.06 1018 10 16.0934 0 0
9:15 pm 21:15 Clear 68 19.9 64 17.5 86 86 Calm 30.06 1018 10 16.0934 0 0
9:35 pm 21:35 Partly Cloudy 65 18.5 63 17.3 93 93 Calm 30.09 1019 10 16.0934 0 0
9:55 pm 21:55 Cloudy 65 18.5 64 17.5 94 94 Calm 30.09 1019 10 16.0934 0 0
10:15 pm 22:15 Cloudy 68 19.9 64 18 89 89 E 12 19 30.09 1019 10 16.0934 0 0
10:35 pm 22:35 Cloudy 68 20 62 16.9 82 82 ENE 9 15 30.09 1019 10 16.0934 0 0
10:55 pm 22:55 Partly Cloudy 67 19.3 62 16.4 83 83 ENE 15 24 30.12 1020 10 16.0934 0 0
11:15 pm 23:15 Cloudy 66 19.1 62 16.4 84 84 ENE 13 20 30.12 1020 10 16.0934 0 0
11:35 pm 23:35 Cloudy 66 19 61 16.2 84 84 NE 12 19 30.12 1020 10 16.0934 0 0
11:55 pm 23:55 Cloudy 66 18.7 61 16 84 84 NE 10 17 30.12 1020 10 16.0934 0 0

Powered by AerisWeather